ESSA 7

operational
NORAD ID: 3345 Int'l Des: 1968-069 Owner: ESSA Country: US
LEOCIRCULARRETROGRADESSO

关于 ESSA 7

正在加载描述...

实时位置

正在加载3D地球...

即将过境

高度历史

Altitude vs Time

uPlot chart will show altitude changes over time

两行轨道根数

1 03345U 68069A 25341.16176365 -.00000055 00000-0 -72878-4 0 9992
2 03345 101.5321 307.7925 0026613 181.8820 188.6526 12.53007161620931
Epoch: Dec 7, 2025 • Age: 19 hours

当前状态

高度 1474.1 km
速度 7.12 km/s
星下点 12.82°N, 116.93°W
类型 other

大型星座

Loading constellations...